RH
35 42 40 45 46 42 34 24 10 5 5 6 6 5 4 4 6 8 9 9 11 14 13 32 100 100 100 100 100 100 100 100 100 100 90 80 67 61 73 100 100 59 100 98 100
34 39 46 42 46 47 42 34 22 7 6 8 7 7 6 6 5 7 9 11 11 11 13 22 98 100 100 100 97 100 100 100 100 94 79 93 98 65 81 100 100 94 100 97 89
35 46 48 43 46 47 52 47 34 24 7 7 9 8 7 7 7 6 10 12 14 14 14 16 23 100 100 100 100 100 100 100 100 100 100 100 98 98 84 98 100 100 62 85 97
30 38 51 51 52 57 55 51 48 38 24 8 7 9 9 7 6 6 8 10 12 15 18 19 17 51 100 100 100 98 100 100 100 100 100 98 100 99 95 98 100 100 100 100 94
26 27 44 46 56 57 69 65 54 51 45 30 10 7 10 11 8 6 6 8 11 14 20 21 20 20 24 80 100 100 100 100 100 100 96 100 98 96 100 100 92 100 100 93 100
28 30 37 44 46 53 65 65 61 54 58 44 36 14 8 10 11 8 6 7 8 13 16 19 24 21 20 19 79 98 100 100 100 100 100 99 100 99 92 92 100 100 100 99 95
32 23 33 39 52 50 48 69 61 66 62 54 49 44 21 8 10 11 9 7 7 9 13 17 18 23 23 21 22 62 73 75 91 100 100 100 100 100 100 100 100 100 98 78 100
27 27 36 38 40 60 59 61 66 70 74 62 58 52 54 22 9 10 12 9 8 8 10 14 18 17 20 25 25 21 20 19 46 94 99 100 100 100 97 96 99 91 88 97 100
30 36 50 44 52 55 74 60 74 66 75 72 65 57 56 51 32 10 10 13 11 8 9 12 17 18 18 27 36 42 43 38 31 38 45 50 63 80 99 100 100 91 99 70 90
28 51 56 55 51 56 74 86 75 78 79 81 75 71 64 61 52 42 11 10 15 13 9 11 13 15 20 32 32 32 36 41 38 34 33 38 47 50 60 80 83 85 72 70 76
42 45 51 46 46 51 56 67 80 77 81 80 84 80 72 73 68 58 44 11 10 16 15 10 11 15 20 27 29 31 38 38 43 46 42 42 43 45 44 38 50 66 63 80 80
47 51 47 55 52 49 55 46 76 80 86 85 95 95 79 84 77 74 64 45 12 10 17 17 13 15 19 23 29 36 39 41 42 43 39 41 44 36 39 41 46 47 63 74 82
72 81 84 79 75 68 79 78 72 77 81 88 77 87 100 92 86 79 68 67 47 14 11 19 19 13 13 16 19 29 35 36 36 38 43 42 40 42 41 40 39 42 47 68 84
90 100 80 83 82 73 84 88 86 88 93 90 95 96 85 94 88 89 88 70 74 42 14 12 18 21 17 16 18 21 24 26 32 32 38 42 41 41 41 39 43 46 61 74 94
84 99 72 70 74 75 81 88 98 89 85 88 96 92 89 94 89 97 82 86 89 70 44 19 12 18 22 21 16 22 20 19 24 26 26 32 35 38 41 47 61 73 81 90 97
97 89 81 86 91 83 88 97 96 100 97 98 100 90 98 100 99 83 82 96 80 79 74 61 20 12 19 23 22 22 23 21 20 20 20 27 30 33 39 59 53 56 79 98 100
80 95 90 100 100 100 88 81 96 98 97 100 100 100 100 100 100 100 98 90 84 81 86 80 60 24 12 21 26 25 23 21 21 23 24 33 30 31 38 40 49 50 54 78 97
89 92 87 100 100 100 100 100 100 95 92 92 88 100 100 100 100 100 100 100 95 78 84 84 87 60 27 14 19 27 24 22 22 25 29 29 25 30 35 37 36 38 43 57 65
71 90 89 100 88 98 100 100 100 97 98 100 97 92 98 100 100 100 100 100 100 94 83 87 99 84 50 19 13 18 22 49 29 26 24 25 28 29 35 40 38 37 39 41 42
89 100 100 100 89 84 99 100 100 100 100 100 100 100 95 100 100 100 100 100 100 100 98 91 88 96 60 31 14 16 34 38 34 29 26 25 31 34 40 57 55 49 39 36 39
90 99 100 100 80 90 94 100 89 100 99 100 100 100 100 100 100 100 100 100 100 100 100 98 82 100 76 44 20 15 20 28 50 43 46 39 36 77 83 79 88 59 47 44 42
67 62 81 85 70 83 92 95 98 100 97 100 100 100 100 100 100 100 100 100 100 100 100 100 91 77 100 57 24 16 15 25 35 59 58 55 52 58 58 73 85 100 72 56 55
61 46 58 58 62 70 89 100 98 100 100 100 100 100 100 100 100 100 100 100 100 100 100 100 100 87 88 80 29 16 17 24 47 63 54 56 96 96 94 88 90 84 84 77 72
57 41 60 56 69 66 77 100 93 100 100 100 100 100 100 100 100 100 100 100 100 100 100 100 100 97 96 94 31 15 16 17 33 46 84 66 97 100 95 100 100 100 94 82 84
56 43 62 78 99 100 99 100 100 100 100 100 100 100 100 100 100 100 100 100 100 100 100 100 100 99 96 91 31 14 16 20 37 47 56 87 89 100 99 96 100 100 96 76 70
60 64 53 67 100 100 100 100 100 100 100 100 100 100 100 100 100 100 100 100 100 100 100 100 100 99 97 69 21 11 13 16 26 67 64 81 100 100 100 100 94 100 100 99 85
63 59 84 76 100 100 100 100 100 100 100 100 100 100 100 100 100 100 100 100 100 100 100 100 98 86 72 42 13 10 14 16 21 63 90 89 97 100 100 100 100 100 100 100 82
Wind_Speed
80 85 90 97 97 101 100 95 82 52 35 24 23 27 41 61 84 102 103 116 111 116 118 119 122 121 98 110 117 124 119 114 111 109 106 104 101 91 88 89 87 85 87 84 77
78 83 90 93 100 101 105 105 93 71 44 31 22 16 24 35 56 78 90 96 107 112 116 117 126 127 125 102 103 111 114 111 113 115 110 106 105 95 91 89 87 85 86 88 81
80 86 89 93 96 101 105 109 105 91 64 41 28 21 16 26 42 60 79 89 94 100 111 113 119 129 129 128 123 93 102 107 111 111 112 112 110 107 98 91 86 91 88 88 85
85 87 90 92 94 98 102 107 107 104 88 65 40 29 21 19 33 49 69 83 87 92 97 109 111 118 135 127 136 122 106 90 92 99 99 101 97 95 96 90 93 88 88 86 88
85 88 91 94 95 97 99 103 103 106 105 89 67 42 29 23 22 36 54 70 83 88 91 98 104 113 118 133 131 127 128 117 98 79 85 89 94 93 90 91 94 92 91 95 91
84 85 89 91 95 98 100 100 101 102 105 103 88 70 49 30 22 20 38 55 69 83 86 89 95 102 111 121 130 123 120 122 120 119 99 85 85 89 96 91 86 88 89 92 91
77 83 85 88 92 96 98 100 101 101 101 102 100 91 71 47 29 22 19 38 55 70 82 89 92 95 102 106 108 119 118 122 115 106 102 101 91 85 82 88 90 86 80 80 87
74 80 83 87 90 93 97 96 100 101 101 102 101 101 98 68 46 27 19 19 40 55 69 83 89 87 91 95 97 102 109 111 113 109 107 109 93 89 91 82 79 79 74 69 76
69 76 80 84 90 90 93 96 95 99 100 101 101 99 99 96 70 49 28 17 21 39 57 70 83 86 86 87 91 95 98 103 102 103 104 103 101 94 88 87 86 88 83 80 70
71 72 77 82 87 90 89 91 92 94 96 97 99 98 99 95 94 74 51 29 17 23 39 54 72 79 83 89 88 91 95 100 102 106 107 106 102 99 92 90 90 88 82 87 87
69 72 77 81 84 89 91 91 91 91 92 93 94 97 98 95 92 90 73 48 27 21 25 40 52 66 79 88 93 94 94 97 97 103 105 104 102 97 93 90 87 87 83 74 77
68 71 74 78 82 85 88 89 90 89 89 91 93 94 97 97 96 90 86 70 49 27 22 27 39 57 72 81 86 90 93 93 91 94 96 98 96 95 90 89 86 82 78 77 77
69 72 74 74 79 83 87 87 90 92 91 88 91 92 91 95 96 93 85 83 67 50 27 24 36 41 54 68 79 86 88 90 90 91 92 94 91 87 87 88 84 80 79 77 77
70 74 76 78 81 84 85 88 89 92 94 92 90 90 90 89 92 93 89 84 82 60 47 29 30 35 45 53 63 70 81 88 88 88 89 94 87 82 84 84 81 79 79 80 78
71 75 78 77 80 82 85 86 88 90 91 94 93 93 92 91 88 88 91 87 83 78 60 49 37 32 38 50 58 63 75 80 83 86 86 87 86 82 83 82 81 82 84 81 80
72 73 77 81 84 85 84 85 88 90 93 92 93 95 96 91 91 91 87 87 82 80 75 63 48 34 36 45 52 61 68 70 70 73 75 78 84 79 78 83 85 85 86 84 83
72 74 78 84 90 89 89 90 87 90 92 93 93 93 93 98 95 92 91 88 85 81 80 73 60 48 36 40 47 54 62 66 64 62 59 71 78 69 78 84 85 87 87 87 86
77 77 79 86 93 94 93 92 96 95 93 95 94 93 94 92 98 95 95 90 88 82 79 79 72 54 50 40 49 52 58 59 61 62 67 77 69 67 78 83 85 84 83 84 85
79 83 81 89 91 93 97 97 96 96 99 96 99 93 95 94 94 98 96 94 89 88 82 80 72 63 53 46 48 51 48 57 63 66 67 64 62 64 69 73 78 78 78 79 79
84 84 86 91 93 96 98 99 99 101 99 99 98 97 98 94 97 97 96 95 93 91 88 78 72 66 60 53 44 46 56 59 60 56 57 60 60 58 64 68 71 74 75 74 75
86 89 90 91 93 96 99 102 104 102 105 103 104 100 99 101 97 96 97 97 95 94 90 87 77 71 63 59 47 48 53 60 63 59 56 58 58 60 62 66 68 71 70 71 70
86 88 92 95 98 99 101 104 107 108 108 109 107 107 103 104 102 101 97 95 98 93 92 88 81 75 65 64 52 50 55 57 62 60 60 62 56 63 66 67 69 70 71 68 67
92 93 94 97 100 103 105 109 110 113 116 114 112 113 110 106 107 106 100 97 100 93 91 84 81 81 72 67 55 48 56 60 60 66 64 64 51 62 65 65 67 70 71 68 67
95 97 99 102 104 104 107 110 111 114 118 119 117 120 115 108 109 111 103 104 97 92 90 85 79 82 74 75 61 51 56 64 67 68 63 62 63 65 64 65 69 70 71 68 67
101 102 101 107 108 112 112 115 115 118 120 121 121 123 119 117 112 117 106 101 92 90 90 87 78 80 74 76 70 50 53 63 71 71 71 61 65 66 68 68 67 70 73 70 68
105 108 108 111 114 117 118 117 119 122 124 121 122 122 125 118 113 98 101 100 90 88 89 87 80 80 74 79 69 58 50 62 70 77 74 70 67 66 67 67 66 66 68 69 69
108 109 110 114 118 120 122 124 123 124 126 129 126 124 114 110 101 98 93 88 89 89 89 84 87 82 71 77 67 56 52 59 67 77 81 77 72 70 68 67 67 67 67 69 70
Wind_Direction
11 11 13 15 16 16 13 12 10 2 353 330 297 263 245 238 232 230 231 230 229 226 226 224 222 224 227 232 235 235 237 239 240 241 248 252 253 255 254 254 252 255 255 259 263
9 10 12 15 18 18 18 16 15 12 8 0 332 294 256 240 235 232 232 230 228 227 226 222 221 224 225 221 233 236 237 239 241 243 249 251 253 253 251 251 248 248 252 256 260
12 10 11 14 16 18 19 20 19 18 17 11 9 334 274 236 232 228 228 230 227 228 227 225 223 221 227 229 230 230 238 239 240 243 244 246 250 251 252 250 247 249 250 254 260
11 10 13 14 15 18 19 18 21 20 19 18 13 9 341 278 235 227 226 226 230 227 225 225 224 223 225 228 230 232 230 236 238 243 247 250 251 253 250 248 247 246 246 251 257
10 11 12 15 15 17 18 19 21 24 24 22 19 12 5 344 293 238 227 226 226 227 223 224 225 225 227 229 232 228 233 234 234 240 245 247 250 248 247 250 249 241 244 249 256
9 10 11 14 16 15 18 19 20 20 22 24 23 21 13 357 340 296 239 227 226 227 228 227 226 227 227 229 230 231 234 236 242 242 240 240 247 246 245 244 244 245 250 253 255
9 13 13 13 13 16 16 16 19 19 22 25 23 23 19 8 354 340 297 241 229 225 227 227 228 226 226 229 230 233 235 237 240 242 245 248 243 241 240 241 244 246 250 249 251
7 7 9 10 12 11 13 16 15 17 18 20 22 23 24 16 9 352 333 286 242 232 228 228 229 232 231 228 229 230 233 238 240 241 243 241 248 244 249 250 247 249 247 244 244
3 3 7 7 7 9 11 11 13 13 15 16 18 21 21 22 16 10 349 326 284 246 236 232 232 233 234 234 236 233 235 239 241 241 243 244 248 249 242 239 244 244 246 251 247
1 3 4 4 4 5 7 9 10 11 11 12 13 15 16 20 19 16 8 344 315 283 251 237 234 234 233 235 236 236 236 238 238 238 240 242 245 248 250 250 252 254 257 255 258
357 359 359 1 1 3 4 6 6 8 9 7 9 10 12 14 17 17 13 4 338 300 276 254 240 235 232 232 234 234 235 237 238 239 239 241 243 248 250 251 252 256 257 261 261
354 356 358 360 359 0 1 2 4 4 6 5 5 6 8 8 10 12 15 11 359 332 293 268 247 237 234 233 235 236 236 236 236 239 241 241 242 245 247 247 250 253 255 258 260
350 352 354 355 357 357 359 359 360 0 2 2 3 3 3 5 6 8 10 11 8 356 326 288 264 252 242 238 237 237 238 239 238 238 241 242 242 245 246 247 249 250 253 254 255
348 348 350 352 353 355 355 357 358 358 358 359 359 1 1 1 3 2 4 6 9 4 354 314 280 262 252 245 241 240 241 240 239 239 239 243 242 245 247 248 250 250 250 250 251
343 343 345 347 348 350 352 353 355 356 356 356 356 357 357 357 356 0 359 0 3 4 1 352 321 279 262 250 245 240 242 241 239 240 240 243 243 243 245 246 247 247 248 250 250
339 340 341 343 344 346 347 349 350 350 352 353 353 353 354 354 354 354 356 356 356 357 359 357 347 312 272 257 249 242 244 245 242 241 240 243 244 242 245 244 245 244 246 246 248
335 336 337 337 338 341 343 346 345 347 348 350 350 349 349 351 349 350 349 352 355 353 353 353 351 344 304 273 259 252 246 244 241 240 237 238 238 233 237 241 242 242 243 244 246
328 331 332 333 334 336 339 341 342 345 344 344 345 345 346 345 347 345 345 347 348 350 350 351 351 345 333 292 269 255 250 247 243 236 230 230 233 232 234 239 242 243 244 245 247
324 327 328 329 332 333 335 336 338 340 340 339 341 342 342 342 341 343 342 342 342 344 346 346 348 341 338 317 282 268 259 248 245 238 235 236 235 230 236 239 242 244 244 245 247
323 323 324 324 327 329 330 331 332 334 336 336 338 337 339 338 337 338 339 338 338 337 341 340 346 339 334 326 300 271 255 250 251 246 246 238 233 233 234 238 240 242 243 244 245
319 320 321 322 322 324 325 327 328 330 331 333 334 334 333 335 333 333 334 335 334 335 334 337 337 339 330 329 305 274 258 253 247 246 244 237 230 229 229 233 238 241 241 241 242
320 319 318 320 320 320 321 322 324 326 327 329 330 331 329 330 332 331 330 330 331 330 331 332 331 333 332 325 310 282 264 252 248 244 242 239 235 234 232 232 235 238 240 239 240
317 317 317 318 319 319 319 319 321 323 324 325 326 328 327 326 326 327 325 326 327 326 327 328 327 329 327 324 310 282 262 255 246 242 239 238 232 235 236 236 238 239 239 239 239
312 313 315 316 316 317 318 317 318 318 319 321 322 322 324 323 321 323 322 322 323 322 323 324 324 325 323 319 309 284 265 250 245 240 237 235 231 235 234 236 235 238 240 238 238
309 311 312 313 313 316 316 315 316 316 317 317 318 319 320 319 318 320 319 318 319 319 321 320 322 320 318 316 306 285 264 251 245 244 239 230 230 232 234 233 236 239 243 243 239
307 308 309 309 311 312 313 313 313 313 315 316 317 317 317 318 315 316 317 317 316 316 317 318 319 318 316 312 300 285 263 251 242 240 241 234 230 230 233 236 236 239 243 245 245
306 307 308 308 307 309 310 310 312 313 313 314 314 315 314 313 313 313 314 314 314 314 314 315 316 312 314 307 294 284 266 249 240 236 236 236 231 229 231 233 236 236 239 245 246